Location: Mascot Post Office (historical)
(40.2645°N, 99.5462°W)
Time: 17:16:07
(UTC+00:00)

Cosmos 2221 Rocket - Pass Details

Date: 14 July 2020
Orbit: 619 x 649 km, 82.5° (Epoch: 05 August)

Event Time Altitude Azimuth Distance (km) Brightness Sun altitude
Rises 08:41:25 0° 353° (N) 2,906 7.8 -22.4°
Reaches altitude 10° 08:43:40 10° 355° (N) 1,994 6.9 -22.2°
Maximum altitude 08:48:05 79° 82° (E) 636 3.6 -21.8°
Enters shadow 08:49:10 50° 158° (SSE) 788 3.8 -21.6°
